Погода в Шиньше

Россия / Республика Марий Эл     56°25′20″N   49°22′01″E
темп.,
°C
ветер,
м/с
пор.,
м/с
влажн.,
%
обл.,
%
осадки,
мм/ч
давл.,
гПа
погр.,
м
20 апреля, вт
вт2000:000в412530 0.0 1032322
03:00−1в411530 0.0 1033292
06:00+1в410500 0.0 1033327
09:00+6вюв57380 0.0 1033932
12:00+8вюв57280 0.0 10321438
15:00+9вюв68270 0.0 10301464
18:00+7юв48370 0.0 1030390
21:00+3вюв413475 0.0 1029368
21 апреля, ср
ср2100:00+2вюв5145180 0.0 1028401
03:00+2юв51552100 0.0 1027562
06:00+3юв71649100 0.0 1025766
09:00+5юв81645100 0.0 1025885
12:00+7ююв81542100 0.1 10231160
15:00+5ююв81655100 0.4 10231021
18:00+1ююв71796100 2.9 1022782
21:00+1ююв71798100 8.2 1021698
22 апреля, чт
чт2200:00+1ююв71497100 1.3 1021752
03:00+2ю61398100 1.4 1021537
06:00+2ю51198100 0.1 1022465
09:00+4ю41097100 0.1 1023440
12:00+4ю41098100 0.4 1023479
15:00+6ю5989100 0.4 1023669
18:00+7ююв5118999 0.1 1023634
21:00+7ю61491100 0.6 1024647
23 апреля, пт
пт2300:00+5ю41198100 0.5 1023477
03:00+4ю3799100 0.5 1024307
06:00+5ююв2497100 0.0 1025146
09:00+8ю338195 0.0 1026598
12:00+10ю227280 0.0 1025919
15:00+11юв226693 0.1 1025941
18:00+9вюв36790 0.0 1025182
21:00+5вюв2790100 0.0 1025119
24 апреля, сб
сб2400:00+5в2292100 0.0 102338
03:00+4в2694100 0.0 1022120
06:00+5в3989100 0.0 1021305
09:00+8в4772100 0.0 1019704
12:00+11всв4563100 0.0 10171119
15:00+10в4569100 0.0 10151019
18:00+7вюв3787100 0.1 1014493
21:00+6в2595100 0.1 1013311